Lloydminster Airport
CYLL : rendu visible

Aérodrome :











RETROUVEZ-NOUS SUR...

 
LOGIN :

S'inscrire | Disclaimer

   EN    FR    IT 

 









Légende :    VFR   VFR Marginal   IFR   IFR Intensif   IFR Très Intensif
Visi : 
Plafond : 
>= 8 km
>= 3000ft
5 à 8 km
1000 à 3000 ft
1500m à 5 km
500 à 1000 ft
800 à 1500m
200 à 500 ft
< 800m
< 200 ft
Symboles :   Orages  Brouillard  Fortes neiges  Fortes précipitations  Vent > 20 kt






- Altitude de l'aérodrome : 2193 ft
- Code IATA : YLL


CYLL - Lloydminster

DERNIER METAR :
  • 241500Z 29008KT 15SM SCT075 BKN260 M15/M18 A3009 RMK AC3CI3 SLP244

METARs EXPIRÉS :
  • 241400Z 30005KT 15SM FEW070 BKN140 M13/M16 A3006 RMK AC2AC4 SLP234
  • 241300Z AUTO 29007KT 9SM SCT150 M12/M15 A3004 RMK SLP223

TAF TAF CYLL
Valide du 24 à 12h jusqu'au 25 à 00h UTC


241138Z 2412/2424 30008KT P6SM SCT140 RMK FCST BASED ON AUTO OBS. NXT FCST BY 241800Z



MET'MAP, la Météo Aéronautique d'un coup d'oeil ! - Copyright ORBIFLY Décembre 2007 - Disclaimer

ORBIFLY MET'MAP TEAM :

Programmation & Développement : Alexandra Zaïnal
Sur une idée originale de : Baudouin d'Aumeries
Assistance à la programmation : Marc-Olivier Méhu
Soutien technique & logistique : Manuel Goepfert

Contact : metmap@orbifly.com




SOURCES & CREDITS :

   NOAA       Earth
Advisory